RH
7 7 7 7 9 13 16 17 16 14 13 16 20 20 18 15 8 4 3 2 36 75 62 91 100 57 35 33 33 41 62 61 60 66 81 55 28 37 65 39 46 69 49 62 55 42 58
7 7 6 7 12 16 18 16 13 14 20 56 95 98 96 43 19 9 4 3 2 11 45 98 100 93 43 32 41 40 64 61 79 88 98 91 84 32 52 60 82 80 83 76 73 58 58
6 6 6 11 15 18 15 12 14 40 99 100 98 97 90 75 55 22 6 3 3 2 47 99 100 99 58 37 48 40 60 63 60 76 94 98 97 69 75 72 87 85 79 70 58 42 40
5 5 10 15 18 14 14 18 54 100 96 91 85 91 94 77 79 77 62 18 6 3 37 100 99 99 92 46 42 46 62 70 65 61 80 99 95 91 79 87 80 81 82 75 30 40 37
5 8 15 18 14 16 41 79 95 89 82 84 89 91 85 82 85 78 64 59 21 4 32 98 99 91 97 61 36 53 69 71 70 65 83 99 98 99 95 88 82 82 74 64 61 53 60
6 13 19 15 14 51 100 93 92 84 86 88 86 84 88 88 83 75 83 65 76 7 27 97 99 100 88 68 36 48 71 74 73 82 76 95 100 100 100 100 92 78 83 74 72 66 70
10 17 17 12 16 90 91 88 88 88 80 78 74 80 88 81 69 73 73 83 82 22 36 98 98 100 82 64 42 41 62 70 74 78 94 96 100 98 86 76 72 76 85 92 68 68 70
13 19 15 11 28 71 88 85 74 78 78 67 75 79 74 67 88 92 82 80 82 87 85 99 98 99 91 54 39 59 63 76 76 77 79 99 100 85 87 84 78 82 97 87 69 64 66
17 19 12 8 25 68 91 86 84 76 71 56 65 62 65 87 86 88 84 73 73 97 99 92 98 99 95 63 47 49 59 70 76 94 98 93 95 98 97 86 92 88 86 77 71 54 44
20 19 11 7 40 69 94 83 78 70 54 47 53 50 60 92 80 94 81 69 65 94 97 98 98 99 99 70 56 63 84 77 99 98 93 92 88 86 95 87 87 84 78 78 77 72 65
21 17 10 7 46 50 69 66 96 42 40 42 47 47 50 81 97 96 96 66 98 95 97 99 98 99 97 73 53 95 100 98 92 92 95 89 90 89 90 74 89 86 83 79 77 75 79
21 16 8 5 30 36 32 30 42 34 36 39 37 37 90 96 97 91 85 76 96 96 96 98 99 94 93 93 77 81 99 93 90 88 88 87 87 91 89 83 84 88 86 79 72 81 93
22 15 6 2 12 23 24 25 28 30 32 33 35 57 99 97 95 83 74 83 93 97 98 99 99 90 84 98 96 92 100 90 88 95 99 92 88 94 85 80 89 94 85 88 86 89 88
22 14 7 2 11 19 15 18 23 26 33 51 87 96 93 93 82 72 71 68 94 94 98 98 99 95 97 94 99 100 100 93 89 86 92 88 73 83 69 90 81 90 81 75 91 98 81
22 14 8 2 12 22 27 44 86 88 93 94 89 92 94 86 90 85 89 80 96 98 98 98 99 97 99 93 93 99 98 95 85 78 72 84 86 93 98 90 88 91 91 86 87 76 86
23 16 10 1 7 32 73 85 88 92 89 77 74 88 86 81 77 85 98 95 94 98 98 96 95 92 98 96 88 96 97 95 91 78 86 89 83 96 89 97 95 86 80 93 95 96 93
24 17 12 2 7 46 71 86 81 72 86 80 82 73 99 79 92 97 90 96 97 98 97 97 95 97 92 96 84 87 82 90 78 72 93 90 84 96 93 92 80 96 95 92 89 90 93
24 19 14 5 4 42 67 85 76 75 74 71 62 65 61 57 63 78 74 91 96 98 94 94 82 74 84 86 86 82 77 93 95 90 94 91 85 86 82 76 82 85 76 88 83 65 87
24 21 15 10 1 35 57 67 66 73 65 62 64 93 98 85 96 100 64 97 98 94 95 94 87 82 80 78 77 86 94 92 95 98 85 90 90 88 92 81 89 93 94 93 90 80 85
25 23 18 14 4 14 48 56 58 75 65 57 66 88 97 92 84 80 91 98 99 100 95 83 87 82 83 89 89 98 89 89 98 96 94 88 90 71 78 92 88 84 82 84 92 98 86
24 25 20 17 10 2 43 49 52 65 68 55 48 53 69 90 96 91 89 98 100 97 92 96 96 90 87 89 91 93 97 89 87 95 97 93 86 86 75 73 78 75 66 70 82 76 98
22 26 22 19 14 4 11 47 46 59 67 66 70 47 58 75 100 93 83 92 98 98 97 95 88 94 90 96 90 94 91 79 72 78 95 89 86 88 72 72 71 79 74 86 89 92 98
20 26 24 21 17 10 1 23 50 52 61 69 60 41 48 66 98 98 94 90 90 92 100 91 95 82 90 86 93 91 93 88 81 86 83 92 90 87 78 71 83 84 80 85 86 95 100
18 25 25 22 19 14 3 1 30 56 66 72 67 56 53 54 85 84 97 93 82 77 79 85 79 80 77 81 92 98 97 94 94 90 92 95 93 90 78 78 94 80 76 77 84 86 89
17 22 24 21 19 17 6 2 2 34 57 72 74 82 78 70 82 95 100 92 82 76 73 68 62 71 75 83 83 88 92 97 93 98 99 97 99 86 90 87 72 83 72 78 87 78 80
17 21 23 20 18 16 7 2 2 10 54 76 88 89 94 88 88 93 94 88 96 98 85 85 79 82 85 86 86 96 97 93 94 92 99 98 97 98 97 96 87 77 66 85 89 74 80
18 20 21 19 17 13 7 4 4 5 61 85 91 100 100 100 91 89 92 95 94 92 95 98 81 87 87 84 86 85 82 86 83 96 92 100 99 94 87 97 70 72 86 93 89 82 79
19 18 21 18 16 11 6 13 11 5 65 100 100 100 99 100 93 93 96 92 92 98 97 93 92 87 84 96 85 82 83 91 86 90 92 88 89 96 98 97 83 86 91 97 88 78 69
21 18 22 19 16 9 10 25 27 5 60 100 100 99 94 96 97 92 100 100 97 100 94 94 92 93 84 92 88 90 95 89 94 93 94 95 77 82 80 68 74 87 87 90 82 74 59
Wind_Speed
29 33 36 37 39 42 42 42 41 46 46 46 43 43 41 38 30 32 30 30 33 33 30 25 25 22 22 23 22 14 12 15 16 18 14 12 20 23 23 24 25 26 25 20 19 28 32
31 35 38 40 41 45 45 47 45 47 47 41 35 29 24 24 27 26 31 31 33 36 33 27 24 25 25 25 21 21 12 13 22 21 19 17 15 20 14 12 20 13 17 19 26 27 33
35 37 39 42 45 47 48 48 47 41 31 31 31 32 28 26 24 27 31 33 32 34 34 27 27 26 28 20 22 20 19 16 17 23 22 18 17 19 18 18 20 21 20 24 30 28 31
36 38 41 46 48 50 50 50 39 33 35 37 34 34 29 25 26 23 23 31 31 33 36 30 25 23 29 25 22 19 19 20 14 22 25 23 20 19 18 20 16 21 22 26 19 20 22
37 39 43 48 51 52 47 38 35 34 32 31 30 29 25 20 20 23 19 20 24 31 37 31 32 30 28 26 25 20 17 17 16 16 28 24 22 22 22 21 17 16 18 17 12 14 13
37 41 45 49 51 44 33 35 36 35 31 28 26 24 20 17 19 20 16 12 12 28 39 32 29 27 27 28 23 21 20 18 22 16 24 26 23 18 24 19 16 17 18 11 12 8 16
39 44 47 51 50 36 32 33 33 32 29 26 24 20 15 17 17 16 15 12 9 19 43 34 29 35 11 19 24 22 22 20 23 26 22 23 22 24 24 21 18 16 7 13 15 8 17
42 46 49 50 46 35 32 32 32 29 26 24 19 16 17 14 15 15 16 10 9 17 35 38 14 27 22 10 17 24 24 26 22 24 27 23 18 20 14 14 11 12 17 19 19 19 21
43 47 51 50 43 34 32 32 31 29 23 23 17 16 13 15 15 24 14 9 15 23 16 33 19 24 23 20 23 25 25 22 19 24 25 25 12 18 16 14 13 18 20 20 19 23 24
44 49 51 49 37 31 30 32 29 25 22 15 11 10 15 18 26 25 5 8 22 22 7 26 27 24 24 21 18 20 25 21 24 26 20 13 16 10 21 21 20 16 17 15 14 14 9
44 49 51 47 33 28 28 27 24 17 12 9 11 16 19 18 23 15 5 7 11 21 4 28 33 24 24 24 24 28 26 19 25 26 21 11 18 13 11 14 20 12 12 14 15 17 21
43 49 50 45 30 24 25 22 19 14 13 13 17 23 24 18 13 11 14 10 13 5 4 18 29 31 33 18 22 29 27 21 19 15 17 10 8 13 18 12 16 14 16 13 10 7 5
43 48 50 44 27 24 22 21 20 19 19 21 25 23 15 10 4 8 19 14 7 4 9 23 33 34 30 25 20 36 30 27 19 17 21 19 14 10 10 12 17 13 8 1 1 3 7
42 46 49 42 29 27 26 25 25 26 27 28 23 15 9 2 9 17 17 18 4 4 7 24 36 34 29 23 24 32 29 28 18 12 21 17 7 21 14 17 9 18 11 4 5 3 4
40 43 47 40 29 27 27 26 27 30 25 24 11 8 5 11 14 18 18 11 1 6 25 30 37 36 26 20 17 26 24 26 22 18 6 9 5 3 5 9 16 12 14 5 4 7 3
38 41 44 41 28 26 24 24 29 30 27 16 12 15 17 12 11 13 6 5 6 15 20 34 19 22 24 23 18 20 22 19 22 22 10 9 5 3 10 7 20 7 8 7 6 2 5
36 39 42 42 28 24 22 25 28 32 21 14 11 17 10 11 14 9 7 4 8 19 21 11 9 15 24 23 15 18 18 1 16 22 17 10 7 7 12 13 19 22 12 7 5 5 3
33 36 39 41 30 23 23 24 22 29 23 16 13 18 18 14 13 7 2 6 20 16 20 13 7 17 26 20 15 14 13 2 13 12 27 12 8 9 18 6 2 18 19 18 6 4 10
30 33 36 38 33 21 21 21 20 25 22 16 21 16 15 15 7 4 3 14 22 15 11 9 13 14 22 20 13 11 13 9 16 13 21 20 8 4 4 7 14 16 19 19 20 23 23
26 30 34 35 37 19 17 15 17 20 24 16 16 16 17 14 11 2 3 7 20 22 16 20 18 25 29 11 6 13 17 11 19 16 15 11 10 7 7 5 9 14 17 20 20 16 27
25 28 32 33 34 25 12 10 8 12 16 12 8 10 6 11 14 10 11 23 23 23 23 20 16 16 14 14 13 13 10 15 21 21 17 15 9 13 15 16 17 20 22 22 27 34 28
22 25 28 31 33 31 11 7 4 4 7 9 4 5 10 11 11 18 18 18 16 16 16 17 20 15 7 12 6 15 11 14 10 21 19 17 7 9 15 5 7 12 13 18 21 24 31
22 23 25 28 31 32 23 4 6 5 3 3 7 12 11 10 12 9 13 10 10 12 13 15 12 11 7 7 6 6 6 11 5 7 12 14 6 4 4 5 10 8 3 4 12 15 16
21 22 24 25 29 33 30 13 10 9 5 2 8 12 12 15 12 10 8 5 5 5 9 10 6 5 6 6 8 8 5 4 5 5 6 5 7 3 7 9 1 6 5 10 17 16 8
23 22 23 24 26 29 31 20 8 14 9 5 11 11 11 10 14 9 7 3 3 5 8 6 4 3 3 6 8 5 5 4 5 10 11 11 7 2 3 8 12 4 4 13 22 16 14
23 23 23 24 25 28 31 22 11 13 12 8 13 12 12 12 15 12 8 7 2 3 3 6 5 3 6 5 5 4 4 3 3 3 3 8 10 8 2 4 3 4 8 18 18 7 25
23 23 23 24 26 28 30 22 12 12 16 12 15 15 15 11 15 14 14 12 6 5 3 2 4 4 6 4 3 4 4 4 2 4 7 9 11 15 16 7 9 1 13 14 9 14 25
23 24 23 24 27 28 28 20 13 10 18 18 16 12 16 10 13 15 13 12 12 8 4 2 3 1 2 4 2 3 3 4 5 7 5 8 8 9 12 6 8 3 14 12 19 21 21
23 23 24 25 28 29 24 18 14 8 19 21 20 16 18 13 9 11 15 13 15 9 6 4 3 1 2 4 4 3 4 3 4 3 5 8 10 4 8 3 4 12 13 16 19 18 18
Wind_Direction
332 330 331 331 329 326 326 322 321 315 313 309 301 294 290 284 272 262 260 251 233 232 236 241 246 245 241 238 229 229 210 207 203 211 206 209 219 205 209 218 214 224 230 227 224 221 233
331 330 329 329 329 325 326 322 317 313 309 308 310 308 308 288 285 268 260 254 241 231 227 230 250 231 237 237 226 222 210 198 202 202 202 201 212 214 215 189 205 230 229 231 226 229 234
331 331 329 329 327 326 322 318 315 310 306 299 299 304 303 298 282 268 251 249 241 226 218 221 245 238 229 221 230 219 217 210 201 202 201 200 202 202 189 191 211 222 225 234 235 242 242
332 332 331 329 328 325 324 324 320 312 305 304 298 299 302 297 289 288 282 255 238 222 211 210 233 242 236 216 224 219 212 211 212 202 193 200 208 200 213 209 216 225 234 249 255 261 257
333 334 332 331 329 330 330 328 327 323 318 316 311 311 309 300 294 297 295 289 254 212 202 207 218 235 247 222 219 211 211 202 202 197 191 191 212 207 212 216 234 243 247 249 268 241 248
334 334 333 332 335 335 328 325 323 322 323 321 318 315 315 306 302 302 300 274 268 211 196 208 216 225 230 218 208 204 207 198 196 191 196 200 207 196 206 209 221 239 241 255 262 303 246
337 335 335 336 339 333 331 326 326 326 328 321 318 319 318 320 317 311 306 285 277 215 191 202 206 209 176 205 201 198 204 199 194 203 196 193 199 207 228 237 241 203 254 279 239 219 254
338 337 337 342 341 339 336 332 332 332 332 328 325 321 320 316 325 307 300 277 219 194 194 206 187 199 222 212 187 188 195 199 194 196 199 201 212 219 219 232 230 244 264 267 246 245 265
339 339 340 345 345 344 339 339 336 334 335 333 329 320 314 318 307 310 310 256 206 174 198 210 190 168 189 193 190 190 190 193 192 177 191 204 208 210 202 204 232 238 253 262 270 262 264
340 341 343 349 348 345 340 338 341 333 330 333 330 329 321 312 313 318 296 235 194 173 171 183 174 167 181 186 169 187 182 188 173 184 186 196 203 192 210 211 222 248 247 251 262 279 278
342 344 346 351 348 348 344 344 337 349 7 357 342 325 310 311 305 296 175 189 209 186 201 168 162 177 171 175 181 175 163 179 188 185 191 187 201 219 228 225 222 228 232 240 257 269 283
344 345 347 351 350 348 347 351 351 356 348 336 326 322 322 315 287 281 188 169 209 218 235 153 157 160 162 159 172 166 168 177 163 177 203 206 197 215 233 227 205 221 241 261 268 286 281
345 347 348 354 353 348 343 341 339 339 331 324 320 321 326 327 305 169 169 167 147 257 126 149 149 158 161 160 164 166 175 168 164 161 184 200 210 215 209 206 205 213 215 83 308 220 237
346 348 349 355 354 356 348 340 333 326 322 323 333 335 331 26 146 149 163 161 185 257 127 149 155 153 153 161 165 169 172 175 168 174 183 190 202 234 240 213 206 208 216 191 219 216 277
346 349 351 357 359 357 358 356 352 349 349 337 336 351 24 121 139 154 167 178 249 56 133 143 148 155 157 167 165 179 185 184 180 169 151 178 206 229 182 202 201 195 217 203 260 275 270
345 350 354 0 1 2 6 7 3 4 358 25 41 69 104 122 135 140 172 200 347 119 150 152 138 157 166 172 170 179 185 211 202 198 152 147 131 168 192 171 192 197 205 187 201 281 281
344 349 356 2 4 5 5 5 7 10 16 49 68 98 85 116 132 151 122 293 10 129 122 126 122 144 168 160 179 180 185 190 207 192 180 173 174 183 191 217 204 207 206 204 224 234 222
344 348 355 3 6 8 7 12 21 20 39 47 78 88 85 96 113 128 207 247 125 102 96 106 167 186 178 161 159 163 190 57 184 192 186 189 205 206 219 200 255 228 230 222 209 219 233
344 345 353 4 9 8 12 19 39 30 44 62 89 59 63 109 99 100 159 84 98 108 108 133 146 169 172 153 144 164 184 177 170 177 182 202 212 159 138 205 207 216 230 243 256 260 260
343 344 349 3 7 9 18 28 42 49 47 61 59 63 69 72 99 98 86 90 81 80 96 93 127 131 147 141 141 162 173 162 169 176 189 206 223 223 192 148 165 210 231 240 243 248 259
340 343 346 358 5 11 15 20 32 53 52 60 49 44 83 62 45 87 107 81 95 97 104 114 128 111 127 126 134 159 173 177 184 185 188 208 231 246 252 247 246 252 257 252 246 260 256
333 339 344 351 2 6 8 351 343 7 31 36 91 129 129 71 64 109 129 88 88 101 110 118 134 151 154 142 166 167 166 170 172 197 203 225 253 287 297 264 257 269 267 261 267 279 277
329 335 341 349 353 360 5 295 287 290 342 29 130 150 157 131 114 92 102 99 109 120 119 127 125 138 140 116 121 124 166 169 163 187 208 210 226 301 278 330 296 280 74 354 333 319 302
321 328 336 346 350 351 355 345 244 243 252 231 173 172 175 161 134 118 119 126 162 113 151 149 143 124 112 118 136 142 160 192 219 236 234 210 228 263 304 354 263 176 3 346 329 330 306
315 322 330 341 347 347 346 340 279 238 241 235 190 160 167 167 170 143 141 156 112 143 171 183 183 141 134 150 152 152 162 186 220 234 238 246 245 269 296 291 286 130 345 341 330 331 348
310 315 324 335 341 343 339 334 315 222 220 217 185 190 164 164 171 180 183 182 179 120 131 137 143 146 144 160 168 170 189 167 176 162 217 222 223 230 260 289 259 198 329 337 334 310 339
304 307 320 331 338 339 336 330 318 223 201 192 183 174 173 165 172 176 181 182 182 203 191 218 172 169 193 192 157 177 172 178 239 204 192 192 215 222 237 258 282 335 352 344 347 325 330
301 303 318 332 334 335 332 327 320 222 195 180 176 177 176 160 177 179 184 195 202 200 185 203 160 161 188 161 212 196 202 192 218 251 259 213 199 214 226 237 264 349 341 332 333 337 334
300 306 318 332 331 334 327 322 319 227 191 182 178 196 190 167 165 193 200 200 200 209 210 196 184 207 149 152 209 218 227 218 225 261 256 229 227 239 222 236 282 311 311 318 331 332 338